This demonstration page uses our WeatherBlox Daily Observations layout. Learn more.

Left ArrowRight Arrow

39.01783, -85.05884

Hourly Observations for March 30, 2015

Temp ( °F °C ) Dew Point ( °F °C ) Humidity (%) Winds ( mph kmh ) Pressure ( in mb ) Visibility ( mi km ) Precip ( " mm )
12:52 am 00:52 Cloudy 46 7.8 39 3.9 77 77 SW 12 19 29.96 1015 10 16 0.00 0.00
1:52 am 01:52 Cloudy 47 8.3 40 4.4 77 77 WSW 10 17 29.96 1015 10 16 0.00 0.00
2:52 am 02:52 Cloudy 47 8.3 41 5 80 80 WSW 10 17 29.96 1015 10 16 0.00 0.00
3:52 am 03:52 Mostly Cloudy 48 8.9 41 5 77 77 WNW 18 30 29.96 1015 10 16 0.00 0.00
4:19 am 04:19 Partly Cloudy 46 8 37 3 71 71 NW 16 26 30.00 1016 10 16 0.00 0.00
4:52 am 04:52 Mostly Clear 44 6.7 35 1.7 71 71 NW 13 20 29.98 1015 10 16 0.00 0.00
5:52 am 05:52 Clear 40 4.4 33 0.6 77 77 W 5 7 30.00 1016 10 16 0.00 0.00
6:52 am 06:52 Partly Cloudy 39 3.9 33 0.6 79 79 W 7 11 30.03 1017 10 16 0.00 0.00
7:52 am 07:52 Partly Cloudy 40 4.4 32 0 73 73 WSW 3 6 30.06 1018 10 16 0.00 0.00
8:52 am 08:52 Sunny 45 7.2 35 1.7 68 68 SW 3 6 30.07 1018 10 16 0.00 0.00
9:52 am 09:52 Sunny 48 8.9 37 2.8 66 66 WNW 10 17 30.09 1019 10 16 0.00 0.00
10:52 am 10:52 Partly Cloudy 50 10 38 3.3 63 63 W 12 19 30.11 1020 10 16 0.00 0.00
11:52 am 11:52 Partly Cloudy 53 11.7 33 0.6 47 47 WNW 17 28 30.11 1020 10 16 0.00 0.00
12:52 pm 12:52 Mostly Sunny 54 12.2 29 -1.7 38 38 WNW 16 26 30.11 1020 10 16 0.00 0.00
1:52 pm 13:52 Partly Cloudy 56 13.3 30 -1.1 37 37 W 14 22 30.11 1020 10 16 0.00 0.00
2:52 pm 14:52 Partly Cloudy 58 14.4 27 -2.8 31 31 WNW 14 22 30.08 1019 10 16 0.00 0.00
3:52 pm 15:52 Mostly Cloudy 59 15 27 -2.8 29 29 WNW 16 26 30.06 1018 10 16 0.00 0.00
4:52 pm 16:52 Mostly Cloudy 59 15 27 -2.8 29 29 W 17 28 30.05 1018 10 16 0.00 0.00
5:52 pm 17:52 Mostly Cloudy 59 15 28 -2.2 31 31 WNW 18 30 30.05 1018 10 16 0.00 0.00
6:52 pm 18:52 Mostly Cloudy 57 13.9 29 -1.7 34 34 W 15 24 30.05 1018 10 16 0.00 0.00
7:52 pm 19:52 Mostly Cloudy 54 12.2 29 -1.7 38 38 WNW 6 9 30.04 1017 10 16 0.00 0.00
8:52 pm 20:52 Partly Cloudy 51 10.6 29 -1.7 43 43 S 3 6 30.04 1017 10 16 0.00 0.00
9:52 pm 21:52 Cloudy 42 5.6 34 1.1 73 73 SSW 6 9 30.05 1018 10 16 0.00 0.00
10:52 pm 22:52 Cloudy 49 9.4 31 -0.6 50 50 S 7 11 30.05 1018 10 16 0.00 0.00
11:52 pm 23:52 Cloudy 49 9.4 30 -1.1 48 48 S 7 11 30.03 1017 10 16 0.00 0.00

Powered by AerisWeather